RH
88 55 34 30 26 26 23 22 18 7 8 5 3 3 2 2 2 2 2 2 2 2 1 1 1 1 1 2 3 5 6 5 6 6 7 9 14 14 12 15 15 15 30 24 41 60 100
86 66 38 30 27 28 26 23 19 10 8 6 3 3 2 2 2 2 2 2 2 2 1 1 1 1 1 2 2 3 7 7 7 8 8 10 16 16 13 16 16 17 24 24 34 48 96
98 78 44 34 25 28 26 27 22 24 11 7 4 3 3 2 2 2 2 2 2 2 1 1 1 1 1 2 3 3 6 9 8 9 10 12 16 16 15 15 17 16 24 43 25 57 87
100 86 55 33 28 30 28 30 29 33 16 9 5 3 3 2 2 2 2 2 2 2 1 1 1 1 1 2 3 3 6 11 10 9 13 14 15 16 15 14 17 15 18 31 31 39 74
100 91 79 36 33 32 29 32 28 38 29 13 6 3 2 3 2 2 2 2 2 2 1 2 1 2 1 2 3 3 5 11 14 12 14 12 13 15 13 14 17 15 17 26 59 44 96
98 100 88 44 37 32 32 35 37 42 42 22 10 4 3 2 2 2 2 3 2 3 2 2 2 2 2 2 2 3 5 11 16 10 12 9 11 14 15 15 19 18 18 23 100 68 62
84 100 88 53 41 34 32 34 45 52 48 33 14 7 5 3 3 2 2 3 3 3 2 2 2 2 2 2 3 4 4 8 16 11 12 9 12 15 19 19 20 19 18 27 100 100 88
80 99 82 57 38 41 38 38 52 58 51 34 18 12 8 4 3 3 3 2 3 3 3 2 3 2 2 3 3 4 4 8 14 15 15 11 12 16 18 20 20 19 18 21 67 100 83
73 100 84 59 41 44 36 44 66 60 54 33 26 15 12 7 5 3 3 3 3 3 3 4 3 3 2 2 3 4 5 8 16 24 17 17 14 18 19 19 18 18 19 19 36 100 90
70 100 83 58 42 41 35 47 68 59 55 34 33 19 17 10 7 6 3 4 3 3 3 4 4 3 3 3 3 3 3 7 18 25 16 18 16 17 20 19 18 18 18 18 25 96 100
73 100 88 68 42 42 48 58 71 61 57 43 36 34 18 13 9 8 6 4 4 4 4 3 5 4 4 4 5 4 4 8 14 17 16 18 19 16 19 19 21 20 19 18 20 59 99
78 96 96 82 50 36 44 70 68 62 54 45 36 38 22 20 15 10 7 4 4 5 4 5 5 6 5 5 6 6 6 10 10 15 17 17 18 20 19 19 20 20 19 19 18 20 98
76 91 100 86 60 45 42 70 76 65 54 43 35 34 41 17 15 13 9 6 4 5 5 6 6 6 6 6 7 8 9 9 11 10 10 10 14 17 19 19 20 20 20 20 18 18 29
79 84 100 87 62 51 48 70 67 75 58 49 34 41 36 33 21 17 12 7 5 5 5 6 6 7 8 7 6 10 11 13 12 17 22 20 15 14 18 19 18 19 20 20 19 17 21
81 90 94 93 76 49 51 62 68 72 55 48 35 41 37 53 22 26 12 12 7 6 5 7 6 6 9 10 9 9 11 15 20 21 23 27 28 25 20 19 16 20 20 21 20 20 20
89 88 94 86 81 49 57 69 66 71 48 43 38 37 38 59 44 25 16 14 10 5 6 6 7 7 10 12 12 10 9 16 20 27 32 35 35 42 41 38 37 35 32 28 25 25 24
91 92 90 84 80 51 62 78 67 66 44 42 41 31 39 55 63 27 28 14 10 6 6 6 8 8 9 15 15 15 13 16 20 23 32 40 55 57 58 52 53 45 38 31 28 27 26
88 96 82 92 78 60 62 68 69 56 35 38 37 25 36 45 51 55 27 21 10 6 5 7 7 8 10 20 21 19 20 19 19 23 28 30 34 35 33 39 34 34 32 28 23 22 24
92 83 87 77 78 54 66 70 65 52 37 31 33 26 36 41 61 56 33 21 12 7 5 6 6 8 10 11 26 27 22 25 26 28 29 32 33 34 30 26 23 24 22 21 20 19 20
84 88 90 78 73 52 66 70 60 48 34 32 31 22 33 41 52 56 45 24 16 9 5 5 6 7 9 11 14 39 37 28 26 25 28 33 32 30 31 30 28 24 22 20 18 18 17
86 100 94 85 75 55 72 66 60 51 34 36 33 24 37 35 42 50 39 19 16 10 5 5 5 6 8 9 12 13 35 48 43 33 31 30 31 29 29 27 25 24 22 20 20 18 19
85 100 99 86 78 61 77 70 53 50 35 33 31 30 36 34 37 46 51 16 17 11 6 5 6 6 7 9 10 12 16 36 49 60 57 46 37 31 31 30 30 28 24 23 21 20 18
87 98 93 89 70 55 79 74 51 50 37 36 28 30 34 35 36 52 56 16 14 11 5 4 6 6 7 9 10 11 15 20 33 52 67 75 75 69 54 50 42 44 28 28 29 25 21
89 87 92 84 67 60 78 71 54 50 42 40 32 28 33 36 32 58 56 25 11 7 5 4 5 6 7 8 10 10 12 15 20 27 40 63 79 86 77 82 74 51 50 50 46 37 37
90 94 92 86 65 66 75 65 55 54 49 42 36 27 28 33 38 66 62 28 10 7 4 3 4 5 6 8 9 10 11 16 16 17 22 32 41 60 80 80 71 78 77 80 69 45 52
88 90 93 90 69 69 73 58 56 46 49 46 41 34 30 36 44 59 59 32 9 6 4 4 4 5 6 8 10 11 11 15 19 19 19 25 28 31 42 74 67 62 71 71 74 72 66
89 95 99 79 66 68 63 52 58 55 46 49 49 40 36 33 40 48 54 39 9 6 4 4 4 5 7 8 9 10 11 13 18 19 21 22 23 23 24 29 62 68 57 63 70 60 64
86 100 96 77 66 66 58 60 55 50 48 50 49 38 35 34 35 38 51 59 12 6 4 4 5 6 6 9 10 11 12 12 14 19 22 24 24 25 25 24 30 52 70 58 60 68 57
93 99 84 68 72 59 57 61 60 52 52 54 51 33 35 29 31 35 48 63 21 8 4 4 5 6 7 8 10 11 13 14 15 20 24 26 26 28 29 26 29 37 63 80 76 74 60
Wind_Speed
72 74 73 75 80 86 88 92 94 95 101 100 99 101 96 89 77 67 62 61 58 51 39 29 27 34 41 45 60 70 75 77 81 83 86 89 94 98 95 101 101 106 113 112 114 113 111
71 75 74 75 79 85 90 93 96 97 101 105 102 101 101 92 81 70 65 64 60 53 41 31 25 24 32 44 56 62 72 79 82 81 83 83 88 96 97 102 102 105 114 116 115 113 113
70 76 74 75 78 83 88 93 96 98 102 105 105 103 100 96 83 73 67 66 63 56 40 31 24 18 26 40 48 56 70 77 81 82 82 83 89 94 97 101 102 107 114 118 114 113 114
70 73 76 74 79 82 88 93 97 99 102 108 108 104 102 99 88 77 69 68 65 59 42 33 24 12 19 36 50 57 66 74 80 80 84 84 88 93 97 99 103 106 113 118 116 114 116
68 73 77 75 76 80 86 91 96 98 103 109 111 108 106 101 93 83 75 71 68 63 46 37 27 12 9 28 43 49 64 73 79 83 88 86 86 90 93 96 98 102 108 113 117 114 115
65 72 76 74 76 78 84 89 95 97 105 108 112 110 107 103 96 87 79 75 72 67 52 41 29 18 2 18 31 43 58 69 78 83 88 83 82 84 89 90 89 96 103 107 118 117 114
62 69 74 74 75 76 82 86 92 99 104 106 110 112 110 106 99 92 84 74 72 69 57 46 33 21 8 11 26 40 52 67 74 75 79 73 74 75 84 87 90 97 104 109 122 121 115
61 67 71 73 72 74 79 84 89 96 102 104 107 110 110 107 104 96 87 78 70 68 61 50 36 24 12 4 22 37 46 60 66 68 72 72 71 74 83 86 88 95 100 109 119 124 119
60 62 69 70 71 72 76 82 88 94 100 101 101 107 111 107 105 100 89 82 73 67 65 54 40 27 17 7 11 32 46 58 64 66 69 70 71 72 77 83 86 91 97 105 112 124 122
58 62 66 69 69 70 74 77 85 91 94 97 97 97 107 109 104 103 92 83 77 67 63 55 43 32 18 14 5 20 37 50 56 63 69 66 67 70 73 81 82 87 93 99 109 121 124
57 61 64 69 68 69 73 75 82 88 91 96 97 95 102 106 104 102 95 83 76 69 62 56 47 34 22 13 4 12 24 47 55 60 59 58 63 68 70 76 80 85 89 96 104 116 123
56 59 64 68 68 67 70 73 77 84 88 91 93 93 97 106 105 102 97 85 74 66 60 54 48 37 23 14 9 7 20 37 43 51 54 55 61 65 67 70 76 81 85 91 97 103 119
55 57 62 66 67 66 66 70 77 81 84 87 93 91 95 100 105 102 97 86 75 66 57 50 44 38 27 17 8 7 6 15 34 17 38 43 52 59 63 65 69 74 79 83 90 95 105
56 55 61 65 65 64 66 69 73 78 83 84 90 91 95 96 104 101 96 93 75 65 55 47 41 36 30 19 12 10 4 3 13 8 5 15 36 45 52 59 63 67 72 78 83 88 97
58 54 59 64 65 62 65 66 71 75 81 84 87 91 94 101 94 103 96 91 81 66 56 45 40 34 28 23 17 8 7 8 5 6 3 8 15 33 38 46 50 54 62 70 74 80 87
60 54 58 62 67 62 64 66 69 75 78 83 84 86 91 98 93 100 95 89 81 67 53 45 38 32 27 20 17 12 3 6 5 5 10 21 17 15 25 26 33 43 50 56 64 74 81
59 55 57 61 66 62 62 66 67 73 74 80 83 82 87 96 105 92 99 89 80 66 51 40 34 32 24 18 15 13 9 2 9 11 13 17 20 24 23 31 41 46 46 50 58 63 71
57 56 58 61 65 63 61 65 68 70 72 77 80 80 85 94 99 102 96 89 81 69 52 42 30 26 22 15 11 10 9 8 6 13 17 20 23 23 28 32 34 37 41 49 55 61 69
57 59 59 61 63 62 61 65 66 71 73 74 79 80 88 94 102 106 90 90 79 70 56 43 32 22 19 14 7 7 8 9 11 14 17 20 25 29 31 31 33 32 37 42 51 58 63
57 59 58 61 61 60 61 64 66 70 71 75 78 78 87 93 101 106 94 87 84 71 58 44 33 23 17 15 9 7 7 10 13 15 18 21 24 27 30 30 32 34 36 39 41 49 57
57 57 58 61 60 58 62 65 67 70 72 77 78 80 87 89 94 107 91 86 81 72 60 42 37 26 18 15 15 11 10 10 12 15 19 21 24 26 26 28 31 31 32 34 38 44 43
58 58 59 61 60 57 61 64 67 69 73 77 77 80 88 87 96 109 103 91 82 76 59 41 37 29 21 17 17 14 13 13 14 14 15 17 21 24 25 27 28 29 29 30 34 37 41
57 59 59 62 59 57 60 64 66 69 73 78 77 81 84 91 98 107 104 80 80 71 64 43 34 34 24 20 19 17 17 16 17 18 17 17 18 19 20 23 26 29 28 28 31 34 36
56 57 58 63 59 58 59 63 66 69 73 78 79 82 86 92 96 107 106 93 81 77 58 45 35 33 28 23 22 21 20 20 20 20 22 21 21 20 20 22 25 22 24 27 31 33 34
55 54 58 61 58 58 58 62 65 68 73 76 78 82 85 92 99 104 102 96 84 76 60 43 36 30 30 27 24 24 23 22 23 23 23 22 22 23 21 23 26 23 23 23 27 31 31
54 54 57 59 58 58 59 61 64 68 72 77 80 83 86 92 96 102 101 99 89 81 63 44 37 30 28 28 26 25 26 25 24 25 25 24 25 25 25 25 25 24 27 27 27 27 28
55 56 58 59 58 58 61 61 64 70 73 76 80 83 86 89 92 93 105 100 87 76 62 42 38 33 29 31 27 27 27 27 27 25 26 27 26 26 24 25 25 26 28 27 27 27 28
57 57 59 60 59 58 61 63 65 70 75 76 78 83 86 85 85 91 102 97 86 75 61 45 38 34 30 32 29 27 29 29 28 25 26 28 28 25 25 24 23 24 26 26 26 26 26
57 58 59 61 60 60 61 65 68 72 76 78 80 82 85 82 87 85 93 96 81 73 61 49 38 35 31 32 31 30 29 30 30 29 28 27 28 27 26 26 24 26 26 27 26 26 24
Wind_Direction
335 335 334 334 335 337 338 341 343 345 344 350 356 359 358 356 353 351 349 347 347 342 331 314 279 256 244 227 224 221 217 214 215 215 216 214 215 219 217 217 215 212 214 215 217 217 217
334 335 335 334 336 338 338 341 345 346 345 349 355 359 359 357 356 356 354 353 353 348 338 325 303 264 236 222 219 217 213 212 212 213 215 213 214 217 215 215 213 212 213 216 216 216 217
331 334 334 333 334 337 338 341 345 349 347 347 355 359 0 0 0 1 359 358 358 354 344 338 324 276 231 213 213 214 212 208 209 210 212 212 213 214 215 214 213 211 211 215 216 216 217
331 332 334 333 334 338 338 342 347 350 349 347 351 356 0 2 4 6 4 4 3 359 353 352 344 300 231 207 208 206 206 205 207 208 212 212 211 212 214 214 212 211 210 214 216 216 217
330 330 333 333 334 337 340 343 347 350 349 349 349 355 358 3 5 8 7 6 7 4 1 3 2 350 220 207 207 205 201 202 205 208 214 211 209 211 214 215 213 212 211 213 216 217 218
331 329 331 332 333 337 340 343 346 349 350 350 351 354 357 2 5 8 10 7 9 7 7 10 10 14 307 200 205 205 199 200 205 206 213 210 210 210 213 216 213 212 210 213 214 219 218
330 329 331 331 332 337 339 342 346 349 349 351 351 351 354 0 4 7 9 11 9 9 11 15 14 20 41 184 182 197 203 201 205 209 213 209 212 209 213 216 213 211 209 209 211 218 219
327 327 330 330 330 337 339 342 346 349 349 352 351 350 352 357 2 5 7 9 12 10 13 17 18 28 50 129 187 191 198 199 205 210 211 211 210 208 211 214 213 212 211 211 212 217 219
325 328 329 329 329 335 339 342 346 348 349 351 355 350 351 356 1 3 6 7 10 13 12 17 18 25 33 68 186 192 194 197 202 208 210 209 210 209 212 214 216 214 212 211 214 215 220
324 328 328 329 328 333 337 342 345 347 349 351 356 357 352 354 0 2 4 5 6 10 13 14 17 21 38 54 154 198 202 196 202 206 216 208 209 208 210 215 217 216 214 213 212 216 219
322 327 327 329 327 332 336 342 344 347 348 350 357 360 353 352 356 0 4 3 5 4 13 13 18 20 24 65 90 195 205 199 206 211 217 209 210 210 211 213 216 218 218 215 216 217 220
320 323 325 327 327 330 335 339 343 346 347 350 356 359 356 352 355 359 1 2 3 3 5 13 15 17 28 40 90 203 207 204 216 216 220 215 212 213 213 214 217 220 220 219 218 218 219
314 320 322 326 327 327 333 336 341 345 346 349 355 357 0 352 352 359 2 3 1 3 1 6 10 18 23 39 73 127 200 213 224 236 233 232 219 213 214 217 219 222 222 222 221 222 220
311 318 322 325 325 326 330 335 339 343 344 348 354 357 358 1 353 357 0 0 1 360 358 360 6 10 16 21 37 82 131 151 248 285 258 252 235 222 221 222 221 222 224 224 224 223 224
307 315 319 321 324 324 327 332 336 341 342 346 352 359 359 1 359 352 357 359 1 359 358 353 357 5 14 14 19 29 88 113 202 250 266 279 249 232 225 223 226 229 229 228 227 227 228
304 312 317 318 322 323 324 330 335 337 341 347 351 358 2 3 3 350 355 357 357 357 356 351 349 356 6 12 7 9 34 176 196 237 250 264 260 244 242 242 238 237 234 230 228 227 228
301 310 313 316 321 322 323 327 333 334 340 346 351 358 359 2 0 357 350 356 356 358 353 352 343 343 354 5 359 354 1 307 218 212 224 239 243 247 232 230 230 233 231 230 226 226 227
300 306 308 315 319 318 320 325 329 332 336 344 348 354 358 359 357 356 349 353 354 356 352 351 343 335 337 348 350 334 320 307 268 235 237 236 237 236 240 239 236 234 232 228 227 225 224
297 301 307 310 316 315 318 323 327 330 334 343 347 354 355 359 358 357 355 351 352 354 351 345 345 328 323 321 321 309 282 263 257 251 245 242 247 244 244 241 241 244 240 233 229 229 228
293 296 304 307 312 314 316 319 324 327 332 340 346 356 359 360 359 356 352 350 349 353 351 339 339 328 311 300 285 268 268 259 253 251 248 250 252 253 251 248 247 248 242 237 234 233 232
291 298 301 304 312 313 314 319 323 327 333 340 345 354 355 357 357 356 352 348 346 349 350 337 330 324 305 291 282 255 234 235 239 241 246 249 252 256 256 255 254 253 248 245 240 236 234
287 295 298 303 310 310 312 317 320 327 331 338 343 353 354 355 356 354 351 348 341 342 344 336 323 313 301 281 278 266 247 238 234 231 232 240 243 244 246 248 249 251 251 247 245 242 240
286 291 295 299 306 307 310 315 319 326 331 335 343 350 355 353 356 353 349 351 340 342 342 335 321 311 301 279 271 265 253 241 235 234 231 234 237 244 247 252 253 251 251 254 254 252 251
284 288 294 297 302 304 308 313 318 325 331 335 342 349 353 356 356 352 348 345 339 336 340 335 324 311 298 273 266 263 261 250 243 236 234 232 234 233 237 237 242 252 250 250 250 250 252
282 287 291 295 298 300 306 311 318 325 331 335 341 348 353 354 354 354 351 344 337 335 338 334 325 312 298 275 261 255 258 251 248 248 243 240 240 238 238 235 241 235 239 245 249 250 251
280 284 290 293 294 298 304 310 317 324 330 335 340 346 351 352 355 356 350 343 333 336 337 334 324 312 298 275 257 251 256 255 249 248 250 248 246 246 243 241 240 233 235 238 245 249 250
279 284 289 290 291 298 303 309 320 324 329 335 340 343 349 354 355 353 354 345 337 339 339 333 325 312 296 277 260 247 247 252 250 249 250 250 249 249 250 247 241 237 237 237 240 245 248
280 286 287 287 290 297 304 312 319 323 328 333 338 340 347 351 350 353 358 348 337 335 339 338 326 312 298 281 265 253 247 249 253 252 247 249 250 250 251 251 250 246 244 242 243 246 251
284 283 283 285 291 298 306 313 319 324 327 331 335 338 343 349 350 354 355 356 340 333 331 334 324 312 299 282 269 255 248 251 253 252 250 249 248 249 248 249 247 246 246 244 242 243 249